Overview Statistics Trail Chart Weather Telemetry Raw packets
 

This is the latest recevied weather packets stored in our database for station/object K6POO-1. If no packets are shown the sender has not sent any weather packets the latest 10 day(s).

<< 30 31 32 33 34 35 36 >>
Time Temp. Humidity Pressure Rain* Wind** Luminosity Snow
1788480875 20° C 80% 1012.2 hPa 0 mm - 128 W/m² -
1788480575 20° C 79% 1012.4 hPa 0 mm - 121 W/m² -
1788480275 20° C 78% 1012.2 hPa 0 mm - 120 W/m² -
1788479970 20.56° C 77% 1012.3 hPa 0 mm - 152 W/m² -
1788479666 20.56° C 76% 1012.4 hPa 0 mm - 125 W/m² -
1788479365 20.56° C 75% 1012.3 hPa 0 mm - 195 W/m² -
1788479061 20.56° C 73% 1012.3 hPa 0 mm - 136 W/m² -
1788478758 20.56° C 72% 1012.5 hPa 0 mm - 149 W/m² -
1788478454 21.11° C 71% 1012.3 hPa 0 mm - 170 W/m² -
1788478173 21.11° C 70% 1012.4 hPa 0 mm - 211 W/m² -
1788477849 21.11° C 70% 1012.7 hPa 0 mm - 234 W/m² -
1788477548 21.11° C 70% 1012.7 hPa 0 mm - 221 W/m² -
1788477243 21.11° C 69% 1012.5 hPa 0 mm - 239 W/m² -
1788476938 21.11° C 70% 1012.8 hPa 0 mm - 245 W/m² -
1788476633 21.11° C 70% 1012.9 hPa 0 mm - 257 W/m² -
1788476330 21.11° C 69% 1012.9 hPa 0 mm - 238 W/m² -
1788476026 21.11° C 71% 1012.9 hPa 0 mm - 236 W/m² -
1788475722 21.11° C 71% 1013 hPa 0 mm - 256 W/m² -
1788475417 21.11° C 70% 1013.1 hPa 0 mm - 282 W/m² -
1788475113 21.11° C 71% 1013 hPa 0 mm - 273 W/m² -
1788474812 21.11° C 71% 1013.3 hPa 0 mm - 291 W/m² -
1788474507 21.11° C 71% 1013.2 hPa 0 mm - 337 W/m² -
1788474206 21.11° C 72% 1013.3 hPa 0 mm - 318 W/m² -
1788473901 21.11° C 73% 1013.2 hPa 0 mm - 296 W/m² -
1788473600 21.11° C 72% 1013.4 hPa 0 mm - 295 W/m² -

* Rain latest hour (hover to see other rain measurements)
** Current wind speed in m/s (hover to see current wind gust speed)